Location: Cruquius
(52.3348°N, 4.6319°E)
Time: 04:48:33
(UTC+00:00)

SL-27 R/B - Pass Details

Date: 12 May 2021
Orbit: 418 x 467 km, 74.7° (Epoch: 14 June)

Event Time Altitude Azimuth Distance (km) Brightness Sun altitude
Rises 23:44:51 0° 330° (NNW) 2,385 7.1 -19.3°
Reaches altitude 10° 23:46:59 10° 322° (NW) 1,519 5.8 -19.2°
Enters shadow 23:49:55 38° 262° (W) 670 3.1 -19.2°
